IW5EFR Vecchia di Pontedera IT current weather conditions

sailwx.info

Wind from 271 at 3 knots gusting 9

Air temperature 23.9° C
Dewpoint 11.6° C

Last reported at 2018-Apr-23 15:02 UTC.
Time now 2018-Apr-23 15:20 UTC

Location: N 43°37' E 010°38'.
View on Google Maps.

See reports from other nearby stations

  
Tides and Currents Weather Stations Pressure Air Temp Water Temp Dewpoint Dewpoint Depression Visibility Wind Speed Wind Dir Waves Ship Positions
date/time (UTC)wind fromknots sea level pressurealtimeterstation pressurevisibilityair tempwater tempwave heightnotes
2018-Apr-23 15:07 254 2 gusting 8 23.3
2018-Apr-23 15:02 271 3 gusting 9 23.9
2018-Apr-23 14:57 271 3 gusting 9 23.9
2018-Apr-23 14:52 287 4 gusting 9 23.9
2018-Apr-23 14:47 295 2 gusting 9 23.9
2018-Apr-23 14:42 261 3 gusting 10 23.9
2018-Apr-23 14:37 289 8 gusting 10 23.9
2018-Apr-23 14:32 246 4 gusting 10 23.3
2018-Apr-23 14:27 290 6 gusting 10 23.3
2018-Apr-23 14:22 265 3 gusting 10 23.3
2018-Apr-23 14:17 279 6 gusting 10 23.3
2018-Apr-23 14:12 263 9 gusting 13 23.9
2018-Apr-23 14:07 252 7 gusting 13 23.9
2018-Apr-23 14:02 261 6 gusting 8 23.9
2018-Apr-23 13:57 269 7 gusting 8 23.9
2018-Apr-23 13:52 266 5 gusting 7 23.9
2018-Apr-23 13:47 263 5 gusting 7 23.9
2018-Apr-23 13:42 266 4 gusting 7 23.9
2018-Apr-23 13:37 250 0 gusting 7 23.9
2018-Apr-23 13:32 272 4 gusting 8 23.3
2018-Apr-23 13:27 309 6 gusting 8 23.3
2018-Apr-23 13:22 277 6 gusting 7 23.3
2018-Apr-23 13:17 264 3 gusting 7 23.3
2018-Apr-23 13:12 329 6 gusting 7 22.8
2018-Apr-23 13:07 269 2 gusting 7 22.8
2018-Apr-23 13:02 282 2 gusting 8 22.8
2018-Apr-23 12:57 259 3 gusting 8 22.8
2018-Apr-23 12:52 288 4 gusting 8 22.8
2018-Apr-23 12:47 266 6 gusting 8 22.8
2018-Apr-23 12:42 309 3 gusting 9 22.8
2018-Apr-23 12:37 310 6 gusting 9 22.8
2018-Apr-23 12:32 275 0 gusting 10 22.8
2018-Apr-23 12:27 279 6 gusting 10 22.8
2018-Apr-23 12:22 258 6 gusting 11 22.8
2018-Apr-23 12:17 268 1 gusting 11 22.8
2018-Apr-23 12:12 261 8 gusting 12 22.8
2018-Apr-23 12:07 307 6 gusting 12 22.8
2018-Apr-23 12:02 283 6 gusting 9 23.3
2018-Apr-23 11:57 267 5 gusting 9 23.3
2018-Apr-23 11:52 259 1 gusting 9 23.3
2018-Apr-23 11:47 284 4 gusting 9 23.3
2018-Apr-23 11:42 269 4 gusting 15 23.3
2018-Apr-23 11:37 289 6 gusting 15 23.3
2018-Apr-23 11:32 256 4 gusting 11 23.3
2018-Apr-23 11:27 245 5 gusting 11 23.3
2018-Apr-23 11:22 275 4 gusting 8 22.8
2018-Apr-23 11:17 277 8 gusting 8 22.8
2018-Apr-23 11:12 283 2 gusting 10 23.3
2018-Apr-23 11:07 271 1 gusting 10 22.8
2018-Apr-23 11:02 254 2 gusting 7 22.8
2018-Apr-23 10:57 256 2 gusting 7 22.8
2018-Apr-23 10:52 282 4 gusting 7 22.8
2018-Apr-23 10:47 269 0 gusting 7 22.8
2018-Apr-23 10:42 278 1 gusting 9 22.8
2018-Apr-23 10:37 288 4 gusting 9 22.8
2018-Apr-23 10:32 271 1 gusting 9 22.2
2018-Apr-23 10:27 287 0 gusting 9 22.8
2018-Apr-23 10:22 299 2 gusting 7 22.2
2018-Apr-23 10:17 300 1 gusting 7 22.2
2018-Apr-23 10:12 311 2 gusting 6 22.2
2018-Apr-23 10:07 269 2 gusting 6 22.2
2018-Apr-23 10:02 269 1 gusting 6 21.7
2018-Apr-23 09:57 268 3 gusting 6 21.7
2018-Apr-23 09:52 255 21.1
2018-Apr-23 09:47 255 21.1
2018-Apr-23 09:42 255 1 gusting 6 20.6
2018-Apr-23 09:37 254 4 gusting 6 20.6
2018-Apr-23 09:32 246 20.6
2018-Apr-23 09:27 244 4 gusting 5 20.0
2018-Apr-23 09:22 221 20.0
2018-Apr-23 09:17 210 2 gusting 5 20.0
2018-Apr-23 09:12 210 2 gusting 3 20.0
2018-Apr-23 09:07 196 0 gusting 3 20.0
2018-Apr-23 09:02 196 1 gusting 3 20.0
2018-Apr-23 08:57 167 20.0
2018-Apr-23 08:52 167 20.0
2018-Apr-23 08:47 164 0 gusting 4 19.4
2018-Apr-23 08:42 164 18.9
2018-Apr-23 08:37 164 0 gusting 2 18.9
2018-Apr-23 08:32 164 18.9
2018-Apr-23 08:27 163 1 gusting 1 18.3
2018-Apr-23 08:22 163 18.3
2018-Apr-23 08:17 163 18.3
2018-Apr-23 08:12 163 17.8
2018-Apr-23 08:07 163 0 gusting 4 17.8
2018-Apr-23 08:02 163 17.8
2018-Apr-23 07:57 163 0 gusting 4 17.2
2018-Apr-23 07:52 163 17.2
2018-Apr-23 07:47 163 17.2
2018-Apr-23 07:42 163 2 gusting 3 16.7
2018-Apr-23 07:37 163 1 gusting 3 16.7
2018-Apr-23 07:32 163 2 gusting 2 16.1
2018-Apr-23 07:27 163 1 gusting 2 16.1
2018-Apr-23 07:22 163 15.6
2018-Apr-23 07:17 163 0 gusting 3 15.0
2018-Apr-23 07:12 163 14.4
2018-Apr-23 07:07 163 1 gusting 4 14.4
2018-Apr-23 07:02 163 1 gusting 4 14.4
2018-Apr-23 06:57 163 2 gusting 4 13.9
2018-Apr-23 06:52 163 0 gusting 3 13.9
2018-Apr-23 06:47 163 2 gusting 3 13.3
2018-Apr-23 06:42 163 2 gusting 3 13.3
2018-Apr-23 06:37 163 2 gusting 3 12.8
2018-Apr-23 06:32 163 2 gusting 3 12.8
2018-Apr-23 06:27 163 1 gusting 3 12.2
2018-Apr-23 06:22 163 2 gusting 4 12.2
2018-Apr-23 06:17 163 1 gusting 4 11.7
2018-Apr-23 06:12 163 2 gusting 4 11.7
2018-Apr-23 06:07 163 2 gusting 4 11.1
2018-Apr-23 06:02 163 1 gusting 5 11.1
2018-Apr-23 05:57 163 2 gusting 5 11.1
2018-Apr-23 05:52 163 2 gusting 4 10.6
2018-Apr-23 05:47 163 4 gusting 4 10.6
2018-Apr-23 05:42 163 1 gusting 4 11.1
2018-Apr-23 05:37 163 2 gusting 4 10.6
2018-Apr-23 05:32 163 0 gusting 4 10.6
2018-Apr-23 05:27 163 2 gusting 4 10.6
2018-Apr-23 05:22 163 4 gusting 4 10.6
2018-Apr-23 05:17 163 3 gusting 4 10.6
2018-Apr-23 05:12 163 3 gusting 5 10.6
2018-Apr-23 05:07 163 3 gusting 5 10.6
2018-Apr-23 05:02 163 2 gusting 4 10.6
2018-Apr-23 04:57 163 4 gusting 4 10.6
2018-Apr-23 04:52 163 3 gusting 4 10.6
2018-Apr-23 04:47 163 2 gusting 4 10.6
2018-Apr-23 04:42 163 1 gusting 4 10.6
2018-Apr-23 04:37 163 2 gusting 4 10.6
2018-Apr-23 04:32 163 2 gusting 5 10.6
2018-Apr-23 04:27 163 2 gusting 5 10.6
2018-Apr-23 04:22 163 3 gusting 4 10.6
2018-Apr-23 04:17 163 3 gusting 4 10.6
2018-Apr-23 04:12 163 2 gusting 4 10.6
2018-Apr-23 04:07 163 3 gusting 4 10.6
2018-Apr-23 04:02 163 10.6
2018-Apr-23 03:57 163 10.6
2018-Apr-23 03:52 163 4 gusting 5 10.6
2018-Apr-23 03:47 163 2 gusting 5 10.6
2018-Apr-23 03:42 163 1 gusting 4 10.6
2018-Apr-23 03:37 163 1 gusting 4 10.6
2018-Apr-23 03:32 163 2 gusting 6 10.6
2018-Apr-23 03:27 163 0 gusting 6 10.6
2018-Apr-23 03:22 163 3 gusting 6 10.6
2018-Apr-23 03:17 163 2 gusting 6 10.6
2018-Apr-23 03:12 164 5 gusting 7 10.6
2018-Apr-23 03:07 166 4 gusting 7 10.6
2018-Apr-23 03:02 168 6 gusting 6 11.1
2018-Apr-23 02:57 169 2 gusting 6 11.1
2018-Apr-23 02:52 171 5 gusting 6 11.1
2018-Apr-23 02:47 170 6 gusting 6 11.1
2018-Apr-23 02:42 171 4 gusting 6 11.1
2018-Apr-23 02:37 173 3 gusting 6 11.1
2018-Apr-23 02:32 173 4 gusting 6 11.1
2018-Apr-23 02:27 175 4 gusting 6 11.1
2018-Apr-23 02:22 175 4 gusting 5 11.1
2018-Apr-23 02:17 176 4 gusting 5 11.1
2018-Apr-23 02:12 178 3 gusting 5 11.1
2018-Apr-23 02:07 178 4 gusting 5 11.1
2018-Apr-23 02:02 178 4 gusting 6 11.7
2018-Apr-23 01:57 178 4 gusting 6 11.7
2018-Apr-23 01:52 178 1 gusting 5 11.7
2018-Apr-23 01:47 178 4 gusting 5 11.1
2018-Apr-23 01:42 179 3 gusting 5 11.1
2018-Apr-23 01:37 182 3 gusting 5 11.1
2018-Apr-23 01:32 183 11.1
2018-Apr-23 01:27 183 4 gusting 5 11.1
2018-Apr-23 01:22 184 4 gusting 4 11.1
2018-Apr-23 01:17 184 2 gusting 4 11.1
2018-Apr-23 01:12 185 2 gusting 5 11.1
2018-Apr-23 01:07 186 4 gusting 5 11.1
2018-Apr-23 01:02 186 4 11.7
2018-Apr-23 00:57 191 3 11.7
2018-Apr-23 00:52 221 11.7
2018-Apr-23 00:47 229 11.7
2018-Apr-23 00:42 236 11.7
2018-Apr-23 00:37 257 11.7
2018-Apr-23 00:27 258 11.7
2018-Apr-23 00:22 258 12.2
2018-Apr-23 00:17 258 12.2
2018-Apr-23 00:11 258 12.2
2018-Apr-23 00:06 258 12.2
2018-Apr-23 00:01 258 12.2
2018-Apr-22 23:57 258 12.2
2018-Apr-22 23:52 258 12.2
2018-Apr-22 23:47 258 12.2
2018-Apr-22 23:41 258 12.2
2018-Apr-22 23:36 258 12.2
2018-Apr-22 23:31 258 12.2
2018-Apr-22 23:27 258 12.2
2018-Apr-22 23:21 258 12.2
2018-Apr-22 23:17 258 12.2
2018-Apr-22 23:12 258 12.2
2018-Apr-22 23:07 258 12.2
2018-Apr-22 23:02 258 12.8
2018-Apr-22 22:57 258 12.8
2018-Apr-22 22:52 258 12.8
2018-Apr-22 22:47 258 12.8
2018-Apr-22 22:42 258 13.3
2018-Apr-22 22:37 258 13.3
2018-Apr-22 22:32 258 13.3
2018-Apr-22 22:27 258 13.3
2018-Apr-22 22:22 258 13.3
2018-Apr-22 22:17 258 13.3
2018-Apr-22 22:12 258 13.3
2018-Apr-22 22:07 258 13.9
2018-Apr-22 22:02 258 13.9
2018-Apr-22 21:57 258 13.9
2018-Apr-22 21:52 258 13.9
2018-Apr-22 21:47 258 13.9
2018-Apr-22 21:42 258 14.4
2018-Apr-22 21:37 258 14.4
2018-Apr-22 21:32 258 15.0
2018-Apr-22 21:27 259 15.6
2018-Apr-22 21:22 259 16.1
2018-Apr-22 21:17 259 1 gusting 4 16.7
2018-Apr-22 21:12 259 16.7
2018-Apr-22 21:07 259 16.7
2018-Apr-22 21:02 259 4 gusting 1 16.7
2018-Apr-22 20:57 259 16.7
2018-Apr-22 20:52 259 16.7
2018-Apr-22 20:47 259 16.7
2018-Apr-22 20:42 259 16.7
2018-Apr-22 20:37 259 16.7
2018-Apr-22 20:32 259 16.7
2018-Apr-22 20:27 259 17.2
2018-Apr-22 20:22 259 0 17.2
2018-Apr-22 20:17 259 17.2
2018-Apr-22 20:12 259 17.2
2018-Apr-22 20:07 259 17.2
2018-Apr-22 20:02 259 17.2
2018-Apr-22 19:57 259 1 gusting 4 17.2
2018-Apr-22 19:52 259 17.2
2018-Apr-22 19:47 259 1 gusting 3 17.2
2018-Apr-22 19:42 259 1 gusting 4 17.2
2018-Apr-22 19:37 259 1 gusting 4 17.2
2018-Apr-22 19:32 259 1 gusting 5 17.2
2018-Apr-22 19:27 259 0 gusting 5 17.8
2018-Apr-22 19:22 259 17.8
2018-Apr-22 19:17 259 1 gusting 5 17.8
2018-Apr-22 19:12 259 2 gusting 6 17.8
2018-Apr-22 19:07 260 3 gusting 6 17.8
2018-Apr-22 19:02 259 3 gusting 6 18.3
2018-Apr-22 18:57 259 3 gusting 6 18.3
2018-Apr-22 18:52 259 18.3
2018-Apr-22 18:47 257 1 gusting 6 18.3
2018-Apr-22 18:42 257 3 gusting 5 18.9
2018-Apr-22 18:37 254 2 gusting 5 18.9
2018-Apr-22 18:32 248 1 gusting 5 18.9
2018-Apr-22 18:27 244 18.9
2018-Apr-22 18:22 259 18.9
2018-Apr-22 18:17 259 1 gusting 5 19.4
2018-Apr-22 18:12 258 19.4
2018-Apr-22 18:07 258 1 gusting 5 19.4
2018-Apr-22 18:02 259 0 gusting 6 19.4
2018-Apr-22 17:57 262 2 gusting 6 20.0
2018-Apr-22 17:52 267 3 gusting 7 20.0
2018-Apr-22 17:47 258 3 gusting 7 20.0
2018-Apr-22 17:42 275 5 gusting 7 20.6
2018-Apr-22 17:37 261 2 gusting 7 20.6
2018-Apr-22 17:32 273 4 gusting 8 20.6
2018-Apr-22 17:27 259 6 gusting 8 20.6
2018-Apr-22 17:22 268 21.1
2018-Apr-22 17:17 258 1 gusting 8 21.1
2018-Apr-22 17:12 265 6 gusting 9 21.7
2018-Apr-22 17:07 306 6 gusting 9 21.7
2018-Apr-22 17:02 265 1 gusting 9 21.7
2018-Apr-22 16:57 267 9 gusting 9 22.2
2018-Apr-22 16:52 284 3 gusting 6 22.8
2018-Apr-22 16:47 273 2 gusting 6 22.8
2018-Apr-22 16:42 264 4 gusting 9 22.8
2018-Apr-22 16:37 263 4 gusting 9 22.8
2018-Apr-22 16:32 288 1 gusting 9 23.3
2018-Apr-22 16:27 265 2 gusting 9 23.3
2018-Apr-22 16:22 282 2 gusting 7 23.3
2018-Apr-22 16:17 279 2 gusting 7 23.3
2018-Apr-22 16:12 279 5 gusting 9 23.9
2018-Apr-22 16:07 291 4 gusting 9 23.9
2018-Apr-22 16:02 260 0 gusting 11 23.9
2018-Apr-22 15:57 269 7 gusting 11 23.9
2018-Apr-22 15:52 261 8 gusting 11 23.9
2018-Apr-22 15:47 271 2 gusting 11 23.9
2018-Apr-22 15:42 279 1 gusting 10 24.4
2018-Apr-22 15:37 257 6 gusting 10 24.4
2018-Apr-22 15:32 275 4 gusting 10 24.4
2018-Apr-22 15:27 293 6 gusting 10 24.4
2018-Apr-22 15:22 289 3 gusting 12 24.4
2018-Apr-22 15:17 258 9 gusting 12 24.4
2018-Apr-22 15:12 260 6 gusting 10 24.4
2018-Apr-22 15:07 318 1 gusting 10 24.4
2018-Apr-22 15:02 271 6 gusting 12 24.4
2018-Apr-22 14:57 271 2 gusting 12 24.4
2018-Apr-22 14:52 299 4 gusting 9 25.0
2018-Apr-22 14:47 278 6 gusting 9 24.4
2018-Apr-22 14:42 266 6 gusting 10 24.4
2018-Apr-22 14:37 259 6 gusting 10 24.4
2018-Apr-22 14:32 296 6 gusting 12 24.4
2018-Apr-22 14:27 261 3 gusting 12 24.4
2018-Apr-22 14:22 283 4 gusting 13 24.4
2018-Apr-22 14:17 277 3 gusting 13 24.4
2018-Apr-22 14:12 254 3 gusting 12 24.4
2018-Apr-22 14:07 286 8 gusting 12 23.9
2018-Apr-22 14:02 266 7 gusting 13 24.4
2018-Apr-22 13:57 269 7 gusting 13 24.4
2018-Apr-22 13:52 279 3 gusting 11 24.4
2018-Apr-22 13:47 254 4 gusting 11 24.4
2018-Apr-22 13:42 265 9 gusting 11 24.4
2018-Apr-22 13:37 273 6 gusting 11 24.4
2018-Apr-22 13:32 286 5 gusting 12 24.4
2018-Apr-22 13:27 265 6 gusting 12 24.4
2018-Apr-22 13:22 271 6 gusting 12 24.4
2018-Apr-22 13:17 255 7 gusting 12 24.4
2018-Apr-22 13:12 275 6 gusting 12 24.4
2018-Apr-22 13:07 254 5 gusting 12 24.4
2018-Apr-22 13:02 245 4 gusting 12 24.4
2018-Apr-22 12:57 299 6 gusting 12 24.4
2018-Apr-22 12:52 271 4 gusting 9 24.4
2018-Apr-22 12:47 263 12 gusting 9 24.4
2018-Apr-22 12:42 304 3 gusting 10 24.4
2018-Apr-22 12:37 309 6 gusting 10 24.4
2018-Apr-22 12:32 288 4 gusting 12 23.9
2018-Apr-22 12:27 265 4 gusting 12 23.9
2018-Apr-22 12:22 268 1 gusting 9 23.9
2018-Apr-22 12:17 280 5 gusting 9 23.9
2018-Apr-22 12:12 276 3 gusting 10 23.9
2018-Apr-22 12:07 257 6 gusting 10 23.9
2018-Apr-22 12:02 268 3 gusting 10 23.9
2018-Apr-22 11:57 296 5 gusting 10 23.9
2018-Apr-22 11:52 263 6 gusting 11 23.9
2018-Apr-22 11:47 283 6 gusting 11 23.9
2018-Apr-22 11:42 300 2 gusting 12 23.9
2018-Apr-22 11:37 277 6 gusting 12 23.9
2018-Apr-22 11:32 264 5 gusting 12 23.9
2018-Apr-22 11:27 281 7 gusting 12 23.9
2018-Apr-22 11:22 278 2 gusting 9 23.9
2018-Apr-22 11:17 267 2 gusting 9 23.9
2018-Apr-22 11:12 281 3 gusting 11 23.9
2018-Apr-22 11:07 311 3 gusting 11 23.9
2018-Apr-22 11:02 319 2 gusting 11 23.3
2018-Apr-22 10:57 246 1 gusting 11 23.3
2018-Apr-22 10:52 294 2 gusting 8 23.3
2018-Apr-22 10:47 296 4 gusting 8 23.3
2018-Apr-22 10:42 297 2 gusting 7 22.8
2018-Apr-22 10:36 269 5 gusting 7 22.8
2018-Apr-22 10:30 284 22.8
2018-Apr-22 10:25 269 6 gusting 9 22.8
2018-Apr-22 10:21 265 4 gusting 9 22.8
2018-Apr-22 10:18 290 3 gusting 9 22.8
2018-Apr-22 10:08 271 3 gusting 7 22.2
2018-Apr-22 10:00 272 3 gusting 7 22.2
2018-Apr-22 09:55 265 0 gusting 7 21.7
2018-Apr-22 09:50 256 1 gusting 7 22.2
2018-Apr-22 09:45 266 1 gusting 7 21.7
2018-Apr-22 09:40 265 4 gusting 8 21.7
2018-Apr-22 09:35 266 4 gusting 8 21.7
2018-Apr-22 09:30 275 1 gusting 6 21.7
2018-Apr-22 09:25 259 3 gusting 6 21.7
2018-Apr-22 09:20 248 6 gusting 4 21.7
2018-Apr-22 09:15 227 1 gusting 4 21.7
2018-Apr-22 09:10 217 1 gusting 5 21.7
2018-Apr-22 09:05 216 21.1
2018-Apr-22 09:00 211 20.6
2018-Apr-22 08:55 171 0 gusting 3 20.6
2018-Apr-22 08:50 170 0 gusting 2 20.6
2018-Apr-22 08:45 170 1 gusting 2 20.6
2018-Apr-22 08:40 170 20.6
2018-Apr-22 08:35 170 0 gusting 2 20.6
2018-Apr-22 08:30 170 20.6
2018-Apr-22 08:25 170 0 gusting 1 20.6
2018-Apr-22 08:20 170 20.6
2018-Apr-22 08:15 170 20.0
2018-Apr-22 08:10 170 20.0
2018-Apr-22 08:05 170 19.4
2018-Apr-22 08:00 170 18.9
2018-Apr-22 07:55 170 18.9
2018-Apr-22 07:50 170 1 18.3
2018-Apr-22 07:45 170 18.3
2018-Apr-22 07:40 170 18.3
2018-Apr-22 07:35 170 17.8
2018-Apr-22 07:30 170 17.8
2018-Apr-22 07:25 170 17.2
2018-Apr-22 07:20 170 16.7
2018-Apr-22 07:15 170 16.7
2018-Apr-22 07:10 170 16.1
2018-Apr-22 07:05 170 16.1
2018-Apr-22 07:00 170 15.6
2018-Apr-22 06:55 170 15.0
2018-Apr-22 06:50 170 1 gusting 2 14.4
2018-Apr-22 06:45 170 0 gusting 2 14.4
2018-Apr-22 06:40 170 13.9
2018-Apr-22 06:35 170 13.9
2018-Apr-22 06:30 170 0 gusting 3 13.3
2018-Apr-22 06:25 170 0 gusting 3 13.3
2018-Apr-22 06:20 170 1 gusting 4 12.8
2018-Apr-22 06:15 170 0 gusting 4 12.8
2018-Apr-22 06:10 170 1 gusting 5 12.2
2018-Apr-22 06:05 170 2 gusting 5 12.2
2018-Apr-22 06:00 170 2 gusting 4 11.7
2018-Apr-22 05:55 170 2 gusting 4 11.7
2018-Apr-22 05:50 170 4 gusting 3 11.1
2018-Apr-22 05:45 170 2 gusting 3 11.1
2018-Apr-22 05:40 170 1 11.1
2018-Apr-22 05:35 170 1 11.1
2018-Apr-22 05:30 170 11.1
2018-Apr-22 05:25 170 10.6
2018-Apr-22 05:20 170 10.6
2018-Apr-22 05:15 170 10.6
2018-Apr-22 05:12 170 10.0
2018-Apr-22 05:07 170 2 gusting 5 10.0
2018-Apr-22 05:02 170 2 gusting 4 10.0
2018-Apr-22 04:57 170 1 gusting 4 10.0
2018-Apr-22 04:52 170 1 gusting 3 10.0
2018-Apr-22 04:47 170 2 gusting 3 10.0
2018-Apr-22 04:42 170 2 gusting 4 10.0
2018-Apr-22 04:37 170 1 gusting 4 10.0
2018-Apr-22 04:32 170 1 gusting 4 10.0
2018-Apr-22 04:27 170 1 gusting 4 10.0
2018-Apr-22 04:22 170 3 gusting 4 10.0
2018-Apr-22 04:17 170 3 gusting 4 10.0
2018-Apr-22 04:12 170 4 gusting 5 10.0
2018-Apr-22 04:07 170 3 gusting 5 10.0
2018-Apr-22 04:02 170 2 gusting 5 10.0
2018-Apr-22 03:57 170 3 gusting 5 10.0
2018-Apr-22 03:52 170 2 gusting 5 10.0
2018-Apr-22 03:47 170 2 gusting 5 10.0
2018-Apr-22 03:42 170 3 gusting 5 10.6
2018-Apr-22 03:37 170 2 gusting 5 10.6
2018-Apr-22 03:32 170 4 gusting 5 10.6
2018-Apr-22 03:27 170 3 gusting 5 10.6
2018-Apr-22 03:22 170 4 gusting 5 10.6
2018-Apr-22 03:17 170 2 gusting 5 10.6
2018-Apr-22 03:12 170 3 gusting 5 10.6
2018-Apr-22 03:07 170 3 gusting 5 10.6
2018-Apr-22 03:02 170 4 gusting 6 10.6
2018-Apr-22 02:57 170 1 gusting 6 11.1
2018-Apr-22 02:52 170 2 gusting 6 11.1
2018-Apr-22 02:47 170 3 gusting 6 11.1
2018-Apr-22 02:42 170 4 gusting 5 11.1
2018-Apr-22 02:37 171 5 gusting 5 11.1
2018-Apr-22 02:32 175 3 gusting 5 11.1
2018-Apr-22 02:27 175 2 gusting 5 11.1
2018-Apr-22 02:22 175 3 gusting 5 11.1
2018-Apr-22 02:17 175 4 gusting 5 11.1
2018-Apr-22 02:12 175 4 gusting 5 11.1
2018-Apr-22 02:07 175 1 gusting 5 11.1
2018-Apr-22 02:02 175 4 gusting 5 11.1
2018-Apr-22 01:57 175 5 gusting 5 11.1
2018-Apr-22 01:52 176 1 gusting 2 11.1
2018-Apr-22 01:47 176 3 gusting 2 11.1
2018-Apr-22 01:42 176 11.7
2018-Apr-22 01:37 176 11.7
2018-Apr-22 01:32 176 11.7
2018-Apr-22 01:27 176 0 gusting 6 11.7
2018-Apr-22 01:22 176 2 gusting 6 11.7
2018-Apr-22 01:17 176 2 gusting 6 11.7
2018-Apr-22 01:12 176 4 gusting 6 11.7
2018-Apr-22 01:07 178 4 gusting 6 11.7
2018-Apr-22 01:02 183 5 gusting 6 11.7
2018-Apr-22 00:57 190 4 gusting 6 12.2
2018-Apr-22 00:52 196 2 gusting 4 12.2
2018-Apr-22 00:47 200 5 gusting 4 12.2
2018-Apr-22 00:42 202 2 gusting 4 12.2
2018-Apr-22 00:37 202 2 gusting 4 12.2
2018-Apr-22 00:32 202 3 gusting 3 12.2
2018-Apr-22 00:27 202 1 gusting 3 12.2
2018-Apr-22 00:22 203 2 gusting 2 12.2
2018-Apr-22 00:17 203 0 gusting 2 12.8
2018-Apr-22 00:12 203 1 gusting 4 12.8
2018-Apr-22 00:07 203 2 gusting 4 12.8
2018-Apr-22 00:02 203 1 gusting 3 12.8
2018-Apr-21 23:57 203 2 gusting 3 13.3
2018-Apr-21 23:52 203 2 gusting 2 13.3
2018-Apr-21 23:47 203 2 gusting 2 13.3
2018-Apr-21 23:42 203 1 gusting 3 13.3
2018-Apr-21 23:37 203 13.3
2018-Apr-21 23:32 203 1 gusting 4 13.3
2018-Apr-21 23:27 203 1 gusting 4 13.9
2018-Apr-21 23:22 203 2 gusting 4 13.9
2018-Apr-21 23:17 203 13.9
2018-Apr-21 23:12 203 2 gusting 3 13.9
2018-Apr-21 23:07 205 2 gusting 3 13.9
2018-Apr-21 23:02 205 1 gusting 2 13.9
2018-Apr-21 22:57 205 0 gusting 2 14.4
2018-Apr-21 22:52 205 1 gusting 3 14.4
2018-Apr-21 22:47 205 14.4
2018-Apr-21 22:42 205 14.4
2018-Apr-21 22:37 205 0 gusting 4 14.4
2018-Apr-21 22:32 205 1 15.0
2018-Apr-21 22:27 205 0 15.0
2018-Apr-21 22:22 206 15.0
2018-Apr-21 22:17 206 15.0
2018-Apr-21 22:12 206 15.0
2018-Apr-21 22:07 206 15.0
2018-Apr-21 22:02 206 15.0
2018-Apr-21 21:57 206 15.0
2018-Apr-21 21:52 206 15.6
2018-Apr-21 21:47 206 15.6
2018-Apr-21 21:42 206 15.6
2018-Apr-21 21:37 206 15.6
2018-Apr-21 21:32 206 1 gusting 4 15.6
2018-Apr-21 21:27 206 3 gusting 4 16.1
2018-Apr-21 21:22 206 16.1
2018-Apr-21 21:17 206 16.1
2018-Apr-21 21:12 206 0 gusting 4 16.1
2018-Apr-21 20:52 216 17.8
2018-Apr-21 20:47 216 17.8
2018-Apr-21 20:42 216 17.8
2018-Apr-21 20:37 216 18.3
2018-Apr-21 20:32 216 18.3
2018-Apr-21 20:27 216 0 gusting 4 18.9
2018-Apr-21 20:22 216 1 gusting 2 18.9
2018-Apr-21 20:17 216 0 gusting 2 18.9
2018-Apr-21 20:12 217 19.4
2018-Apr-21 20:07 217 19.4
2018-Apr-21 20:02 217 1 gusting 2 19.4
2018-Apr-21 19:57 217 20.0
2018-Apr-21 19:52 217 20.0
2018-Apr-21 19:47 260 20.0
2018-Apr-21 19:42 261 0 gusting 4 20.0
2018-Apr-21 19:37 261 20.0
2018-Apr-21 19:32 261 20.0
2018-Apr-21 19:27 261 20.6
2018-Apr-21 19:22 261 2 gusting 8 20.6
2018-Apr-21 19:17 267 4 gusting 8 20.6
2018-Apr-21 19:12 261 3 gusting 8 20.6
2018-Apr-21 19:07 270 7 gusting 8 20.6
2018-Apr-21 19:02 247 1 gusting 7 20.6
2018-Apr-21 18:57 243 0 gusting 7 20.6
2018-Apr-21 18:52 255 1 gusting 8 20.6
2018-Apr-21 18:47 264 1 gusting 8 21.1
2018-Apr-21 18:42 261 2 gusting 8 21.1
2018-Apr-21 18:37 254 0 gusting 8 21.1
2018-Apr-21 18:32 261 3 gusting 9 21.1
2018-Apr-21 18:27 255 4 gusting 9 21.1
2018-Apr-21 18:22 269 3 gusting 10 21.1
2018-Apr-21 18:17 264 5 gusting 10 21.1
2018-Apr-21 18:12 229 6 gusting 8 21.7
2018-Apr-21 18:07 268 2 gusting 8 21.7
2018-Apr-21 18:02 253 22.2
2018-Apr-21 17:57 264 5 gusting 7 22.2
2018-Apr-21 17:52 261 1 gusting 8 22.2
2018-Apr-21 17:47 251 3 gusting 8 22.8
2018-Apr-21 17:42 260 3 gusting 6 22.8
2018-Apr-21 17:37 271 5 gusting 6 23.3
2018-Apr-21 17:32 258 23.3
2018-Apr-21 17:27 258 23.3
2018-Apr-21 17:22 259 6 gusting 8 23.9
2018-Apr-21 17:17 270 2 gusting 8 23.9
2018-Apr-21 17:13 261 4 gusting 8 24.4
2018-Apr-21 17:04 259 3 gusting 10 24.4
2018-Apr-21 16:59 284 3 gusting 9 24.4
2018-Apr-21 16:54 285 6 gusting 9 25.0
2018-Apr-21 16:49 262 3 gusting 10 25.0
2018-Apr-21 16:44 271 0 gusting 10 25.0
2018-Apr-21 16:39 274 4 gusting 10 25.6
2018-Apr-21 16:34 290 8 gusting 10 25.6
2018-Apr-21 16:29 265 6 gusting 9 25.6
2018-Apr-21 16:24 260 4 gusting 9 25.6
2018-Apr-21 16:19 256 4 gusting 10 26.1
2018-Apr-21 16:14 344 2 gusting 10 26.1
2018-Apr-21 16:09 252 4 gusting 9 26.1
2018-Apr-21 16:04 265 5 gusting 9 26.1
2018-Apr-21 15:59 290 6 gusting 13 26.1
2018-Apr-21 15:54 288 6 gusting 13 26.1
2018-Apr-21 15:49 272 6 gusting 13 26.1
2018-Apr-21 15:44 265 6 gusting 13 26.7
2018-Apr-21 15:39 265 7 gusting 12 26.7
2018-Apr-21 15:34 286 6 gusting 12 26.7
2018-Apr-21 15:29 265 5 gusting 11 26.7
2018-Apr-21 15:24 282 6 gusting 11 26.7
2018-Apr-21 15:19 271 4 gusting 9 26.7
2018-Apr-21 15:14 285 4 gusting 9 26.7
2018-Apr-21 15:09 279 7 gusting 10 27.2
2018-Apr-21 15:04 270 6 gusting 10 26.7